Weather History for KCPR - July, 2012

Change the Weather History Date:

Thursday, July 12, 2012

  Actual Average Record
Temperature  
Mean Temperature 72 °F 70 °F  
Max Temperature 92 °F 88 °F 104 °F (1954)
Min Temperature 51 °F 53 °F 38 °F (2008)
Degree Days  
Heating Degree Days 0 0  
Month to date heating degree days 0 11  
Since 1 June heating degree days 44 147  
Since 1 July heating degree days 0 11  
Cooling Degree Days 7 6  
Month to date cooling degree days 103 61  
Year to date cooling degree days 250 118  
Since 1 June cooling degree days 241 114  
Growing Degree Days 22 (Base 50)    
Moisture  
Dew Point 40 °F    
Average Humidity 48    
Maximum Humidity 83    
Minimum Humidity 13    
Precipitation  
Precipitation 0.00 in 0.04 in 0.45 in (1981)
Month to date precipitation 0.17 0.50  
Year to date precipitation 5.09 7.32  
Snow  
Snow 0.00 in 0.00 in - ()
Month to date snowfall 0.0 0.0  
Since 1 June snowfall 0.0 0.1  
Since 1 July snowfall 0.0 0.0  
Snow Depth 0.00 in    
Sea Level Pressure  
Sea Level Pressure 29.97 in    
Wind  
Wind Speed 6 mph (North)    
Max Wind Speed 9 mph    
Max Gust Speed -    
Visibility 10 miles    
Events      
T = Trace of Precipitation, MM = Missing Value Source: NWS Daily Summary

Daily Weather History Graph

Daily Weather History Graph

Search for Another Location

Airport or City:

Trip Planner

Search our weather history database for the weather conditions in past years. The results will help you decide how hot, cold, wet, or windy it might be!

Date:

Astronomy

Jul. 12, 2012 Rise Set
Actual Time 5:38 AM MDT 8:44 PM MDT
Civil Twilight 5:04 AM MDT 9:18 PM MDT
Nautical Twilight 4:20 AM MDT 10:02 PM MDT
Astronomical Twilight 3:28 AM MDT 10:54 PM MDT
Moon 12:47 AM MDT (7/12) 3:17 PM MDT (7/12)
Length of Visible Light 16h 13m
Length of Day
15h 05m
Waning Crescent, 34% of the Moon is Illuminated
Jul 12
Waning Crescent
Jul 18
New
Jul 26
First Quarter
Aug 1
Full
Aug 9
Last Quarter

Hourly Weather History & Observations

Time (MDT) Temp. Dew Point Humidity Pressure Visibility Wind Dir Wind Speed Gust Speed Precip Events Conditions
12:53 AM 57.0 °F 51.1 °F 81% 29.96 in 10.0 mi Calm Calm - N/A   Clear
1:53 AM 54.0 °F 48.9 °F 83% 29.96 in 10.0 mi NW 4.6 mph - N/A   Clear
2:53 AM 55.0 °F 46.9 °F 74% 29.96 in 10.0 mi NW 8.1 mph - N/A   Clear
3:53 AM 52.0 °F 46.0 °F 80% 29.98 in 10.0 mi NNW 3.5 mph - N/A   Clear
4:53 AM 53.1 °F 46.9 °F 80% 29.98 in 10.0 mi South 5.8 mph - N/A   Clear
5:53 AM 54.0 °F 44.1 °F 69% 30.03 in 10.0 mi WSW 9.2 mph - N/A   Clear
6:53 AM 55.9 °F 46.9 °F 72% 30.04 in 10.0 mi NNW 4.6 mph - N/A   Clear
7:53 AM 66.0 °F 46.0 °F 48% 30.02 in 10.0 mi West 6.9 mph - N/A   Clear
8:53 AM 70.0 °F 45.0 °F 41% 30.03 in 10.0 mi WSW 6.9 mph - N/A   Clear
9:53 AM 75.0 °F 46.9 °F 37% 30.02 in 10.0 mi SSW 5.8 mph - N/A   Clear
10:53 AM 80.1 °F 43.0 °F 27% 30.02 in 10.0 mi Variable 3.5 mph - N/A   Clear
11:53 AM 82.9 °F 43.0 °F 24% 30.01 in 10.0 mi Calm Calm - N/A   Clear
12:53 PM 84.0 °F 41.0 °F 22% 30.00 in 10.0 mi Calm Calm - N/A   Clear
1:53 PM 89.1 °F 39.9 °F 18% 29.98 in 10.0 mi NNE 6.9 mph - N/A   Clear
2:53 PM 91.0 °F 37.9 °F 15% 29.95 in 10.0 mi NNE 9.2 mph - N/A   Clear
3:53 PM 91.0 °F 37.0 °F 15% 29.94 in 10.0 mi NNE 6.9 mph - N/A   Clear
4:53 PM 91.0 °F 35.1 °F 14% 29.92 in 10.0 mi East 9.2 mph - N/A   Clear
5:53 PM 91.0 °F 33.1 °F 13% 29.90 in 10.0 mi Variable 3.5 mph - N/A   Clear
6:53 PM 90.0 °F 32.0 °F 13% 29.90 in 10.0 mi NE 9.2 mph - N/A   Clear
7:53 PM 86.0 °F 32.0 °F 14% 29.89 in 10.0 mi ESE 8.1 mph - N/A   Clear
8:53 PM 82.0 °F 30.9 °F 16% 29.90 in 10.0 mi East 9.2 mph - N/A   Clear
10:53 PM 73.9 °F 32.0 °F 21% 29.93 in 10.0 mi ENE 8.1 mph - N/A   Clear
11:53 PM 72.0 °F 33.1 °F 24% 29.93 in 10.0 mi ENE 8.1 mph - N/A   Clear